Temperature
17 17 17 17 17 17 17 17 17 17 17 17 17 17 17 17 17 17 17 17 17 17 17 17 17 17 17 17 17 17 17 17 17 17 17 17 18 18 18 18 18 18 18
17 17 17 17 17 17 17 17 17 17 17 17 17 17 17 17 17 17 17 17 17 17 17 17 17 17 17 17 17 17 17 17 17 17 17 17 17 17 17 17 17 17 17
17 17 17 17 17 17 17 17 17 17 17 17 17 17 17 17 17 17 17 17 17 17 17 17 17 17 17 17 17 17 17 17 17 17 17 17 17 17 17 17 17 17 17
17 17 17 17 17 17 17 17 17 17 17 17 17 17 17 17 17 17 17 17 17 17 17 17 17 17 17 17 17 17 17 17 17 17 17 17 17 17 17 17 17 17 17
17 17 17 17 17 17 17 17 17 17 17 17 17 17 17 17 16 17 17 17 17 17 16 16 16 16 16 16 16 17 17 17 17 17 17 17 17 17 17 17 17 17 17
17 17 17 17 17 17 17 17 16 17 17 16 16 17 17 16 16 16 16 16 16 16 16 16 16 16 16 16 16 16 16 16 17 17 17 17 17 16 16 16 16 17 17
17 17 17 17 17 17 17 16 16 17 16 16 16 16 16 16 16 16 16 16 16 16 16 16 16 16 16 16 16 16 16 16 16 16 16 16 16 16 16 16 16 16 16
17 17 17 17 17 16 16 16 16 16 16 16 16 16 16 16 16 16 16 16 16 16 16 16 16 16 16 16 16 16 16 16 16 16 16 16 16 16 16 16 16 16 16
17 17 17 17 16 16 16 16 16 16 16 16 16 16 16 16 16 16 16 16 16 16 16 16 16 16 16 16 16 16 16 16 16 16 16 15 15 16 16 16 16 16 16
17 17 17 16 16 16 16 16 16 16 16 16 16 16 16 16 16 16 16 16 16 16 16 16 16 16 16 16 16 16 16 16 16 16 16 15 15 15 16 16 16 16 16
16 16 16 16 16 16 16 16 16 16 16 16 16 16 16 16 16 16 16 16 16 16 16 16 16 16 16 16 15 15 16 16 16 16 16 15 15 15 15 15 15 15 16
16 16 16 16 16 16 16 16 16 16 16 16 16 16 16 16 15 15 15 15 15 16 15 15 15 15 16 15 15 15 15 15 15 15 15 15 15 15 15 15 15 15 15
17 16 16 16 16 16 16 16 16 16 15 15 15 15 15 15 15 15 15 15 15 15 15 15 15 15 15 15 15 15 15 15 15 15 15 15 15 15 15 15 15 15 15
16 16 16 16 16 16 16 15 15 15 15 15 15 15 15 15 15 15 15 15 15 15 15 15 15 15 15 15 15 15 15 15 15 15 15 15 15 15 15 14 14 14 15
17 16 16 16 16 16 16 15 15 15 15 15 15 15 15 15 15 15 15 15 15 15 15 15 15 15 15 15 15 15 15 15 15 15 15 15 14 14 14 14 14 14 14
17 16 16 16 16 16 15 15 15 15 15 15 15 15 15 15 15 15 15 15 15 15 15 15 15 15 15 15 15 15 14 14 14 15 15 14 14 14 14 14 14 14 14
17 16 16 16 16 16 15 15 15 15 15 15 15 15 15 15 15 15 15 15 15 15 15 15 15 15 15 15 14 14 14 14 14 14 14 14 14 14 14 14 14 14 14
16 16 16 16 16 15 15 15 15 15 15 15 15 15 14 14 14 15 15 14 14 14 14 14 14 14 14 14 14 14 14 14 14 14 14 14 14 14 14 14 14 14 13
16 16 16 16 16 15 15 15 15 15 15 15 14 14 14 14 14 14 14 14 14 14 14 14 14 14 14 14 14 14 14 14 14 13 13 13 13 13 13 13 13 13 13
16 16 16 16 16 15 15 15 15 15 15 14 14 14 14 14 14 14 14 14 14 14 14 14 14 14 14 14 14 14 14 14 13 13 13 13 13 13 13 13 13 13 13
16 16 16 16 16 15 15 15 15 15 15 14 14 14 14 14 14 14 14 14 14 14 14 14 14 14 14 14 14 14 13 13 13 13 13 13 13 13 13 13 13 13 13
16 16 16 16 15 15 15 15 15 15 14 14 14 14 14 14 14 14 14 14 14 13 13 13 13 13 13 13 13 13 13 13 13 13 13 13 13 13 13 13 13 13 13
16 15 15 15 15 15 15 15 15 14 14 14 14 14 14 14 14 14 14 13 13 13 13 13 13 13 13 13 13 13 13 12 12 13 13 13 13 12 12 12 13 13 12
15 15 15 15 15 15 15 15 15 14 14 14 14 14 14 14 14 13 13 13 13 13 13 13 13 13 13 13 13 13 13 12 12 12 12 12 12 12 12 12 12 12 12
15 15 15 15 15 14 14 14 14 14 14 14 14 14 14 13 13 13 13 13 13 13 13 13 13 13 13 13 13 12 12 12 12 12 11 12 12 12 12 12 12 12 12
15 15 15 15 14 14 14 14 14 14 14 13 14 14 14 13 13 13 13 13 13 13 13 13 13 13 12 12 12 12 12 12 12 12 11 11 11 12 12 12 12 12 11
Wind_Speed
2 3 2 5 7 7 8 8 9 9 9 9 9 10 10 10 11 12 12 12 13 13 12 12 12 12 12 11 11 11 11 11 11 10 10 9 8 8 7 6 6 5 5
1 1 2 5 6 7 8 8 8 9 9 9 9 10 10 10 11 11 12 12 13 13 13 13 13 13 13 12 12 12 11 10 10 11 10 9 8 7 7 6 6 5 6
1 1 3 5 6 7 8 8 9 10 10 10 9 9 10 10 11 12 12 12 12 12 13 13 13 13 13 13 12 12 11 11 11 11 9 8 7 8 7 7 6 6 5
2 2 3 5 7 7 8 9 9 9 10 10 10 10 10 11 11 11 11 11 12 12 12 12 12 12 13 12 12 11 11 11 11 10 8 7 7 9 9 8 7 6 5
3 3 3 5 6 7 8 8 9 9 10 10 10 10 11 10 11 10 10 11 11 11 12 12 12 12 12 12 12 11 11 11 11 10 9 8 7 9 9 9 9 8 7
3 4 3 5 6 7 7 8 9 9 9 10 10 10 10 10 10 10 10 10 10 11 12 12 12 12 12 12 12 11 11 11 11 9 8 8 7 8 9 9 10 10 10
3 4 4 5 6 7 8 8 9 9 9 10 9 9 9 9 9 9 9 10 10 11 12 12 12 12 12 11 11 11 11 11 9 8 7 7 7 8 9 8 9 10 10
4 4 4 6 7 7 8 8 9 9 9 10 10 10 10 10 9 9 9 10 10 11 12 12 12 12 11 12 12 12 11 10 8 7 6 6 7 9 9 9 9 10 9
4 4 5 6 6 7 7 8 8 9 9 10 10 10 10 10 11 10 10 10 10 10 11 11 11 11 11 11 12 12 12 11 8 6 6 6 7 9 9 9 9 9 9
4 4 5 6 6 6 6 7 8 8 9 9 9 10 10 10 10 11 10 10 10 11 11 11 12 12 12 12 12 11 11 10 8 7 6 7 9 10 10 10 9 10 9
3 3 3 4 5 6 6 6 7 7 8 9 8 9 9 9 9 9 10 11 11 11 11 12 11 12 12 12 11 11 10 8 7 6 6 8 9 9 9 9 10 10 10
1 1 2 2 3 5 5 6 7 7 8 9 9 9 8 8 8 8 9 10 10 10 11 11 11 11 10 9 9 9 8 8 7 6 7 9 9 8 8 9 9 9 10
2 1 1 2 3 4 4 5 5 6 7 7 8 8 8 8 8 8 7 7 8 9 8 9 9 9 8 7 7 7 7 7 6 6 8 9 9 8 8 8 9 9 10
2 1 1 2 3 3 3 4 4 4 4 4 6 7 6 5 5 5 5 6 6 6 6 6 6 7 7 7 7 7 7 7 6 6 8 10 9 8 8 9 9 9 9
3 2 2 2 2 2 2 2 3 3 3 3 4 5 5 4 3 4 4 5 6 6 5 4 5 5 5 6 6 6 6 6 7 7 7 10 10 9 9 9 9 10 10
4 3 2 3 2 3 2 1 1 2 2 3 3 3 4 4 3 3 3 4 5 5 5 5 4 4 4 4 5 5 5 6 7 7 8 9 10 10 9 9 9 9 9
4 4 3 3 3 3 2 1 1 2 3 2 2 2 3 4 4 3 2 3 3 5 5 5 5 5 4 4 4 5 5 6 6 7 8 8 9 10 10 9 9 9 9
3 3 3 3 3 3 2 1 1 2 3 2 2 2 2 3 4 4 2 2 3 4 4 3 3 3 4 3 3 3 4 4 6 7 7 8 8 8 9 10 9 8 8
3 3 2 2 3 3 2 2 2 2 2 2 2 2 2 3 4 4 2 2 4 4 3 3 3 3 3 3 2 3 3 3 4 5 6 7 8 8 8 9 10 9 8
3 3 3 2 2 2 2 1 1 2 1 2 2 2 2 3 4 4 3 3 4 3 3 3 3 3 2 2 3 3 3 3 3 4 4 5 7 8 8 8 9 9 9
3 3 2 3 2 2 1 1 1 1 0 0 1 2 3 3 4 4 3 3 3 2 2 2 2 3 2 2 2 3 3 3 3 3 3 4 5 6 7 7 7 7 7
2 2 1 2 1 1 1 1 1 1 1 1 0 2 2 3 4 4 3 2 2 2 2 2 2 1 2 2 2 2 3 4 4 3 3 3 4 5 5 6 7 7 7
2 1 1 1 1 1 2 2 2 3 2 2 1 1 1 2 3 3 4 3 2 2 1 1 1 2 1 1 2 2 2 1 3 3 3 3 4 4 4 5 6 7 7
2 1 1 1 1 1 2 3 3 2 1 1 1 1 1 1 2 2 3 3 3 2 2 1 1 1 2 1 1 1 1 2 1 2 3 3 4 4 4 4 5 6 7
2 1 1 1 1 1 1 2 3 2 1 0 0 0 0 1 1 1 2 3 2 2 2 1 1 1 1 2 1 1 1 1 1 1 2 4 4 3 3 3 3 4 6
1 1 1 1 1 1 1 1 3 3 2 1 0 0 0 1 1 1 1 2 2 2 2 1 1 2 1 2 1 1 1 1 1 1 1 2 3 3 3 3 3 3 5
Wind_Direction
298 306 22 65 67 69 69 70 68 67 66 67 68 70 72 73 72 68 67 68 69 72 76 76 75 75 75 78 79 79 77 76 74 72 67 64 64 68 68 69 77 74 86
236 307 69 76 75 75 75 73 70 69 68 69 70 70 73 75 74 73 71 70 70 70 72 75 74 72 73 74 75 76 75 74 72 69 63 55 55 61 64 68 68 72 77
116 64 77 83 81 78 78 77 72 69 70 72 72 72 76 78 76 74 73 71 72 73 73 74 73 71 71 72 71 72 72 72 71 66 56 42 48 56 60 65 68 66 70
111 77 84 90 86 80 79 79 75 70 70 71 71 74 78 80 79 77 73 71 73 74 74 74 75 74 72 70 70 71 70 68 67 60 48 39 43 54 57 61 62 60 57
92 73 78 91 87 83 81 80 78 74 71 71 73 75 77 77 79 79 74 73 75 75 75 75 75 73 74 73 71 74 73 70 65 54 44 38 39 52 54 56 56 54 52
87 67 72 87 86 83 82 80 77 74 70 70 72 73 74 74 76 77 76 75 76 76 76 77 75 72 75 75 72 74 76 72 60 50 42 35 36 50 55 56 56 53 54
93 66 70 87 85 82 79 79 77 74 72 71 70 70 71 72 73 73 74 77 78 76 75 75 74 71 72 73 71 71 73 69 60 49 41 36 37 49 54 57 57 56 56
102 72 59 77 82 81 79 78 77 76 74 71 69 69 68 66 67 69 71 74 75 74 71 70 71 70 70 71 69 68 69 66 58 48 40 37 43 53 54 56 58 59 59
80 66 48 54 63 70 76 79 79 76 75 70 68 68 66 65 65 65 65 71 73 72 69 70 71 68 66 68 67 65 64 62 55 45 41 41 47 56 56 55 55 56 54
66 57 47 49 53 54 60 74 76 76 74 71 70 69 66 60 58 59 61 69 69 68 67 68 67 66 66 65 64 63 62 55 47 41 39 46 49 53 52 51 52 53 51
71 50 50 48 47 53 62 67 69 73 71 68 67 67 61 52 48 49 59 65 66 65 63 63 63 62 61 61 60 57 55 49 43 40 42 46 48 52 50 51 52 52 53
133 82 59 57 53 56 63 62 57 58 61 63 61 58 57 54 47 50 52 58 61 61 58 58 59 57 56 54 52 51 49 42 41 35 42 42 47 51 52 52 50 50 53
168 133 89 83 69 68 61 66 61 60 60 60 60 60 60 56 50 46 42 40 45 51 49 52 54 53 58 58 54 50 46 43 37 33 35 40 46 49 53 55 52 52 55
142 137 122 109 95 80 77 73 70 68 64 58 55 60 63 57 49 43 46 40 45 50 52 54 58 54 56 56 56 53 47 44 37 30 33 37 42 47 53 58 58 57 56
166 169 157 135 119 102 87 81 78 70 71 72 67 64 71 65 54 47 44 48 49 54 58 58 62 59 52 51 54 55 48 40 37 33 27 33 38 42 48 56 59 58 57
181 182 173 156 148 130 120 110 100 85 84 82 76 75 83 83 73 61 53 49 48 54 61 66 63 63 56 56 50 49 46 41 40 36 30 26 31 36 41 47 55 54 54
187 184 180 172 148 139 146 148 125 110 105 91 88 92 92 96 94 85 70 51 46 57 68 69 60 59 57 51 40 42 48 45 43 37 33 30 25 27 33 38 45 48 47
158 169 188 177 155 156 152 149 128 112 108 100 100 101 100 104 104 94 87 64 58 64 69 69 53 53 46 44 37 29 37 40 39 38 37 32 28 25 24 30 36 38 36
139 137 148 165 160 161 147 132 118 103 99 97 98 95 98 100 104 99 99 84 76 72 66 65 52 59 52 38 43 38 29 29 27 39 36 31 29 27 24 24 28 27 26
109 104 98 98 131 142 129 101 76 77 65 70 87 108 115 109 107 100 91 79 79 75 58 54 58 48 53 42 50 40 21 17 28 31 25 28 25 24 25 24 21 17 19
86 90 88 84 79 111 106 132 146 184 240 328 66 101 118 118 111 104 97 85 84 79 75 72 70 61 42 29 51 20 8 21 29 20 17 21 16 16 22 21 19 18 11
110 106 99 98 103 117 147 145 152 159 168 205 50 66 97 116 123 122 119 116 105 91 74 70 76 79 39 39 83 64 7 353 0 6 4 11 3 6 11 14 19 18 11
132 164 181 170 131 86 88 97 75 56 40 32 25 21 30 104 125 127 134 137 126 125 133 116 105 110 98 22 57 110 113 266 317 335 348 359 355 358 349 359 13 12 11
194 177 139 126 98 94 98 114 128 131 128 256 249 244 351 80 120 135 134 137 139 140 148 171 124 128 124 99 25 45 115 163 151 326 332 341 349 352 342 351 1 9 12
187 168 134 99 82 83 99 132 132 118 138 130 36 95 50 20 63 118 138 144 151 160 169 158 113 110 128 143 142 117 73 50 86 152 304 326 339 337 338 338 347 359 4
113 99 73 89 69 74 85 100 146 144 135 119 154 174 309 334 332 322 164 162 170 171 175 172 143 122 119 120 124 133 145 148 182 160 219 295 312 312 327 337 347 346 354
Height
1523 1522 1522 1522 1521 1521 1520 1520 1519 1519 1518 1517 1517 1517 1516 1516 1515 1514 1513 1512 1511 1511 1512 1513 1513 1514 1514 1515 1515 1515 1515 1516 1516 1516 1516 1517 1517 1517 1517 1517 1517 1516 1516
1524 1523 1523 1523 1522 1522 1521 1521 1520 1519 1519 1518 1518 1517 1517 1517 1516 1516 1515 1515 1514 1514 1514 1515 1515 1515 1516 1516 1516 1516 1516 1516 1516 1516 1517 1517 1517 1517 1517 1517 1516 1516 1516
1524 1524 1524 1524 1523 1523 1523 1522 1521 1521 1520 1519 1519 1518 1518 1518 1518 1517 1517 1517 1517 1516 1516 1516 1517 1517 1517 1517 1517 1517 1517 1517 1517 1517 1517 1517 1517 1517 1517 1517 1516 1516 1515
1526 1525 1525 1525 1525 1524 1524 1523 1523 1522 1521 1521 1520 1519 1519 1519 1519 1519 1519 1519 1519 1518 1518 1518 1518 1518 1518 1518 1518 1518 1518 1518 1518 1518 1518 1518 1518 1518 1517 1517 1516 1515 1513
1527 1526 1526 1526 1526 1526 1525 1525 1524 1523 1523 1522 1522 1521 1521 1521 1521 1521 1521 1521 1521 1521 1520 1520 1520 1520 1520 1520 1519 1519 1519 1519 1519 1519 1519 1519 1518 1518 1518 1517 1516 1514 1510
1527 1527 1527 1527 1527 1527 1526 1526 1525 1525 1524 1524 1523 1523 1523 1523 1523 1523 1522 1522 1522 1522 1522 1522 1522 1522 1521 1521 1521 1521 1521 1521 1520 1520 1520 1520 1519 1519 1518 1517 1516 1514 1511
1528 1528 1528 1528 1528 1528 1527 1527 1527 1526 1526 1525 1525 1525 1525 1524 1524 1524 1524 1524 1524 1524 1524 1524 1524 1524 1523 1523 1523 1522 1522 1522 1522 1521 1521 1520 1520 1519 1519 1518 1517 1516 1514
1529 1529 1529 1529 1529 1528 1528 1528 1528 1528 1527 1527 1527 1526 1526 1526 1526 1526 1526 1526 1526 1526 1526 1525 1525 1525 1525 1524 1524 1524 1523 1523 1523 1522 1522 1521 1521 1520 1519 1518 1518 1517 1516
1530 1530 1530 1530 1530 1530 1530 1529 1529 1529 1529 1528 1528 1528 1528 1528 1527 1527 1527 1527 1527 1527 1527 1527 1527 1526 1526 1526 1525 1525 1525 1525 1524 1524 1523 1522 1522 1521 1520 1519 1519 1518 1518
1531 1531 1531 1531 1531 1531 1531 1530 1530 1530 1530 1530 1530 1530 1529 1529 1529 1529 1529 1528 1528 1528 1528 1528 1528 1528 1527 1527 1526 1526 1526 1526 1525 1525 1524 1523 1522 1522 1521 1520 1520 1519 1519
1532 1532 1532 1532 1532 1532 1532 1532 1532 1532 1532 1531 1531 1531 1531 1531 1530 1530 1530 1530 1530 1529 1529 1529 1529 1529 1528 1528 1528 1527 1527 1527 1527 1526 1525 1524 1523 1522 1522 1521 1521 1520 1519
1532 1533 1533 1533 1533 1533 1533 1533 1533 1533 1533 1532 1532 1532 1532 1532 1532 1532 1531 1531 1531 1531 1531 1530 1530 1530 1530 1529 1529 1529 1528 1528 1528 1527 1526 1525 1524 1523 1523 1522 1522 1521 1521
1533 1534 1534 1534 1534 1534 1534 1534 1534 1534 1534 1534 1534 1534 1534 1533 1533 1533 1533 1533 1532 1532 1532 1532 1531 1531 1531 1530 1530 1530 1529 1529 1528 1528 1527 1526 1524 1524 1523 1523 1523 1522 1522
1534 1534 1534 1535 1535 1535 1535 1535 1535 1535 1535 1535 1535 1535 1535 1535 1534 1534 1534 1534 1534 1533 1533 1533 1532 1532 1532 1532 1531 1531 1530 1530 1529 1528 1527 1526 1525 1525 1524 1524 1523 1523 1523
1534 1534 1535 1535 1535 1535 1535 1535 1535 1535 1535 1536 1536 1536 1536 1536 1535 1535 1535 1535 1535 1534 1534 1534 1533 1533 1533 1533 1532 1532 1531 1531 1530 1529 1528 1527 1526 1525 1525 1525 1524 1524 1524
1534 1534 1535 1535 1536 1536 1536 1536 1536 1536 1536 1536 1536 1536 1536 1536 1536 1536 1536 1536 1535 1535 1535 1535 1534 1534 1534 1533 1533 1532 1532 1531 1531 1530 1529 1528 1527 1527 1526 1525 1525 1525 1524
1534 1535 1535 1535 1536 1536 1536 1536 1536 1537 1537 1537 1537 1537 1537 1537 1537 1537 1537 1536 1536 1536 1536 1535 1535 1535 1534 1534 1533 1533 1532 1532 1531 1531 1530 1529 1528 1527 1527 1526 1526 1525 1525
1534 1535 1535 1535 1536 1536 1536 1536 1537 1537 1537 1537 1537 1537 1537 1537 1537 1537 1537 1537 1536 1536 1536 1536 1535 1535 1535 1534 1534 1533 1533 1532 1532 1531 1531 1530 1529 1528 1527 1527 1526 1526 1525
1534 1534 1535 1535 1535 1536 1536 1536 1536 1537 1537 1537 1537 1538 1538 1538 1538 1537 1537 1537 1537 1537 1537 1536 1536 1536 1535 1534 1534 1534 1533 1533 1532 1532 1531 1530 1530 1529 1528 1527 1527 1526 1525
1533 1534 1534 1534 1535 1535 1535 1536 1536 1536 1536 1537 1537 1537 1537 1537 1538 1537 1537 1537 1537 1537 1537 1536 1536 1536 1535 1535 1534 1534 1534 1533 1533 1532 1532 1531 1530 1529 1528 1528 1527 1525 1525
1533 1533 1534 1534 1534 1534 1534 1535 1535 1535 1536 1536 1536 1537 1537 1537 1537 1537 1537 1537 1537 1537 1536 1536 1536 1536 1535 1535 1535 1534 1534 1533 1533 1532 1532 1532 1531 1530 1529 1528 1527 1525 1524
1531 1532 1533 1533 1533 1533 1534 1534 1534 1534 1535 1535 1536 1536 1537 1537 1537 1537 1537 1537 1537 1536 1536 1536 1536 1535 1535 1535 1535 1534 1534 1535 1533 1533 1532 1532 1531 1530 1529 1528 1527 1525 1524
1530 1531 1531 1532 1532 1533 1533 1533 1533 1534 1534 1534 1534 1535 1536 1536 1536 1536 1536 1536 1536 1536 1536 1535 1535 1535 1535 1535 1535 1535 1534 1534 1533 1533 1532 1532 1531 1530 1529 1528 1527 1525 1524
1529 1530 1531 1531 1531 1531 1532 1532 1532 1532 1532 1532 1533 1534 1535 1535 1535 1535 1535 1535 1535 1535 1535 1535 1535 1535 1535 1534 1534 1534 1535 1534 1534 1533 1532 1531 1530 1529 1529 1528 1527 1525 1524
1528 1529 1529 1530 1530 1530 1530 1530 1530 1531 1531 1531 1532 1533 1533 1534 1534 1534 1534 1534 1534 1534 1534 1534 1534 1534 1534 1533 1533 1533 1533 1533 1533 1532 1531 1530 1529 1529 1528 1527 1526 1525 1524
1527 1528 1528 1528 1528 1529 1529 1529 1529 1529 1530 1530 1531 1531 1531 1532 1532 1533 1533 1533 1533 1533 1533 1533 1533 1533 1533 1532 1532 1532 1532 1532 1532 1531 1530 1529 1528 1528 1527 1526 1525 1524 1523